Torna al catalogo

FENGYUN 1C DEB

AttivoPO
NORAD 30408·DEBRIS·🇨🇳 China

Lanciato May 10, 1999 da Taiyuan Satellite Launch Center

Loading…

Prossimi Passaggi (prossime 24 ore)

TLE

AggiornatoSource: Space-Track

Epoca: Sep 11, 2026, 17:08 UTC

1 30408U 99025ADX 26254.71452674  .00005632  00000-0  18416-2 0  9993
2 30408  99.0197 231.1259 0043123 232.1713 305.5655 14.38397234654566

Traccia FENGYUN 1C DEB in tempo reale con AllMySat

Download on the App Store